Content
SEND FEEDBACK

Daily
Averages
Monthly
Summary
Spain

MADRID, SPAIN


Home > Europe > Spain
Elevation: 581 meters     Latitude: 40 27N     Longitude: 003 33W

WEATHER
 
SELECT A DAY
Number of Records: 306,683;   Date Range: 7/1/96 - 12/20/14
 
SHARE

PRINT THIS DATA

[ ← Previous Day ]
WEATHER ALMANAC - 16 MARCH, 2013
[ Next Day → ]
[ °F ]   °C
Weather ElementAverageHighLow
Temperature8.2 °C11 °C (4:30 pm)6 °C (7:30 am)
Dewpoint2.2 °C4 °C (7:00 am)-2 °C (1:00 am)
Humidity66.1 %87 % (7:30 am)48 % (7:00 pm)
Barometer1011.5 hPa1015.2 hPa (12:30 am)1008.1 hPa (10:00 pm)
Wind Speed11.3 km/h22.2 km/h (7:00 pm)
Wind Gust48.1 km/h (5:30 pm)
Weather ElementAverage
Visibility11.1 km
Wind DirectionSSW (192.5 °)

Weather ElementTotal
Precipitation---
Heating Degree Days9.8 (Base 18.3)
Averaged from 48 records on 16 March, 2013
WEATHER CONDITIONS BREAKOUT
WIND DIRECTION BREAKOUT
WEATHER BY HOUR - 16 MARCH, 2013
[ °F ]   °C
Local TimeTemperatureDewpointHumidityBarometerVisibilityWind DirectionWind SpeedGust SpeedPrecipitationEventsConditions
12:30 AM7 °C-1 °C57 %1015.2 hPaVariable3.7 km/hClear
1:00 AM7 °C-2 °C53 %1014.2 hPaSE (140°)5.6 km/hClear
1:30 AM7 °C-2 °C53 %1014.2 hPaSE (130°)5.6 km/hClear
2:00 AM7 °C-2 °C53 %1014.2 hPaSE (140°)3.7 km/hClear
2:30 AM7 °C-2 °C53 %1013.2 hPaESE (120°)5.6 km/hClear
3:00 AM7 °C-2 °C53 %1013.2 hPaSE (140°)3.7 km/hClear
3:30 AM8 °C-2 °C50 %1013.2 hPaSouth (180°)7.4 km/hClear
4:00 AM8 °C-2 °C50 %1013.2 hPa10 kmSSW (210°)16.7 km/hScattered Clouds
4:30 AM8 °C-1 °C53 %1013.2 hPa10 kmSSW (210°)14.8 km/hScattered Clouds
5:00 AM8 °C0 °C57 %1012.2 hPa10 kmWSW (250°)9.3 km/hScattered Clouds
5:30 AM8 °C1 °C62 %1012.2 hPa10 kmWest (270°)11.1 km/hScattered Clouds
6:00 AM8 °C3 °C71 %1012.2 hPa10 kmWest (270°)7.4 km/hLight Drizzle
6:30 AM7 °C3 °C76 %1013.2 hPa10 kmSSW (200°)16.7 km/hLight Drizzle
7:00 AM6.7 °C3.3 °C71 %1014.6 hPa12.9 kmSSW (210°)13 km/hRainLight Drizzle
7:00 AM7 °C4 °C81 %1013.2 hPa10 kmSSW (210°)13 km/hLight Drizzle
7:12 AM7 °C4 °C81 %1013.2 hPa10 kmSSW (210°)11.1 km/hDrizzle
7:30 AM6 °C4 °C87 %1013.2 hPa10 kmSSW (210°)11.1 km/hDrizzle
8:00 AM7 °C4 °C81 %1013.2 hPa10 kmSW (230°)11.1 km/hLight Drizzle
8:30 AM7 °C4 °C81 %1012.2 hPa10 kmSSW (210°)9.3 km/hLight Drizzle
9:00 AM7 °C4 °C81 %1012.2 hPa10 kmSouth (180°)5.6 km/hLight Drizzle
9:30 AM7 °C4 °C81 %1012.2 hPa10 kmSouth (180°)9.3 km/hLight Drizzle
10:30 AM7 °C4 °C81 %1012.2 hPa10 kmSSW (200°)18.5 km/hLight Drizzle
11:00 AM7 °C4 °C81 %1012.2 hPa10 kmSSW (200°)20.4 km/h40.7 km/hLight Drizzle
11:30 AM7 °C4 °C81 %1012.2 hPa10 kmSSW (210°)20.4 km/hLight Drizzle
12:30 PM7 °C4 °C81 %1012.2 hPa10 kmSouth (180°)13 km/h40.7 km/hLight Drizzle
1:00 PM7.8 °C3.3 °C66 %1012.9 hPa30.6 kmSouth (180°)13 km/hRainLight Drizzle
1:00 PM8 °C4 °C76 %1012.2 hPa10 kmSouth (180°)11.1 km/hMostly Cloudy
1:30 PM8 °C3 °C71 %1011.2 hPa10 kmSSW (210°)13 km/h42.6 km/hMostly Cloudy
2:00 PM9 °C4 °C71 %1011.2 hPa10 kmSSW (200°)13 km/h35.2 km/hMostly Cloudy
2:30 PM9 °C4 °C71 %1011.2 hPa10 kmSSW (200°)11.1 km/h37 km/hScattered Clouds
3:00 PM10 °C3 °C62 %1010.2 hPa10 kmSSW (210°)11.1 km/h37 km/hScattered Clouds
3:30 PM10 °C2 °C58 %1010.2 hPa10 kmSSW (200°)7.4 km/hMostly Cloudy
4:00 PM10 °C2 °C58 %1010.2 hPa10 kmSW (220°)14.8 km/h33.3 km/hMostly Cloudy
4:30 PM11 °C2 °C54 %1009.1 hPa10 kmSW (220°)7.4 km/hScattered Clouds
5:00 PM11 °C3 °C58 %1009.1 hPa10 kmSSW (200°)14.8 km/hScattered Clouds
5:30 PM10 °C3 °C62 %1009.1 hPa10 kmSouth (190°)14.8 km/h48.1 km/hMostly Cloudy
6:00 PM10 °C3 °C62 %1009.1 hPa10 kmSW (220°)11.1 km/hMostly Cloudy
6:30 PM10 °C4 °C66 %1009.1 hPa10 kmSSW (200°)9.3 km/h35.2 km/hScattered Clouds
7:00 PM10 °C2.2 °C48 %1009.5 hPa30.6 kmSSW (210°)22.2 km/hOvercast
7:00 PM10 °C3 °C62 %1009.1 hPa10 kmSSW (200°)16.7 km/hScattered Clouds
7:30 PM10 °C2 °C58 %1009.1 hPa10 kmSW (220°)18.5 km/hMostly Cloudy
8:00 PM10 °C2 °C58 %1009.1 hPa10 kmSouth (190°)13 km/hPartly Cloudy
8:30 PM10 °C2 °C58 %1009.1 hPa10 kmSSW (200°)13 km/hScattered Clouds
9:30 PM9 °C2 °C62 %1009.1 hPa10 kmSW (230°)5.6 km/hMostly Cloudy
10:00 PM9 °C2 °C62 %1008.1 hPa10 kmSSW (210°)9.3 km/hScattered Clouds
10:30 PM9 °C3 °C66 %1008.1 hPa10 kmSouth (180°)9.3 km/hMostly Cloudy
11:00 PM8 °C4 °C76 %1008.1 hPa10 kmSSE (150°)5.6 km/hRainLight Rain
11:30 PM7 °C4 °C81 %1008.1 hPa10 kmSE (130°)3.7 km/hMostly Cloudy
Hourly data recorded from LETO, located 0 kilometers away from Madrid, Spain







STORIES FROM OUR PARTNERS